RH
48 47 46 44 44 43 42 42 41 41 40 40 40 39 39 39 40 41 42 43 44 45 47 48 50 52 53 55 56 57 58 61 64 66 69 70 71 73 75 77 79 81 83 84 86 87 89 90 90 90 91 92 91 90 89 86 84 82 80 78 76 75 72 69 64 58 56 54 51 49 46 43 40 37 36 34 34 34 35 36 35 36 35 30 28
47 48 48 49 50 51 52 53 54 55 56 56 58 59 60 61 63 65 66 67 67 68 69 70 71 71 72 72 72 73 73 75 77 78 79 80 80 81 81 82 82 83 84 85 86 86 87 88 87 86 86 86 86 85 83 80 77 73 72 71 68 66 63 60 56 52 51 49 46 45 42 40 37 35 34 32 31 32 34 36 35 32 32 31 29
62 64 65 66 68 69 70 71 71 72 72 72 72 71 71 71 70 70 69 68 66 65 64 63 62 61 61 60 59 59 58 58 58 59 60 60 60 60 60 61 61 62 63 64 64 65 67 67 67 67 66 66 65 65 64 63 61 60 59 60 58 55 53 51 49 47 45 43 41 41 40 39 38 35 32 32 31 33 33 34 36 34 33 32 31
66 66 65 64 64 63 62 60 58 57 55 53 52 50 49 47 45 44 43 42 41 39 38 37 37 36 36 36 35 35 34 34 34 34 35 36 37 37 37 38 39 39 40 42 43 45 46 47 47 48 48 47 48 48 49 48 48 48 48 48 48 47 46 44 42 39 38 36 35 35 35 35 37 36 34 33 31 32 33 34 36 36 34 33 32
44 42 41 40 39 38 37 36 36 35 34 33 32 32 32 31 30 30 30 29 29 29 29 28 28 28 28 28 28 28 28 27 28 28 28 28 29 29 29 29 30 30 30 30 31 32 33 34 33 34 34 33 34 34 34 34 34 34 34 34 35 35 35 34 33 31 28 27 27 26 26 27 29 30 31 31 27 26 28 31 33 34 33 33 32
30 30 30 30 30 30 30 30 30 30 30 30 30 30 30 30 30 30 30 30 30 30 30 30 30 30 30 30 30 30 30 30 30 30 30 30 30 31 31 31 31 31 31 31 31 31 32 32 32 31 32 31 31 31 30 30 30 30 30 29 30 29 29 29 29 28 26 24 23 22 22 22 22 23 24 25 24 22 21 22 25 27 27 28 28
31 31 31 32 32 32 32 32 32 33 33 33 33 33 33 33 33 33 33 33 33 33 32 32 32 32 32 32 32 32 32 31 31 31 31 32 32 32 32 32 32 32 33 33 33 33 34 34 34 34 34 34 34 34 34 34 33 33 33 32 32 32 31 31 31 30 29 28 26 24 23 23 23 24 23 23 24 24 22 20 20 21 21 22 23
34 35 35 35 35 35 36 36 36 36 37 37 37 37 37 37 37 37 38 37 37 37 37 37 36 36 36 35 35 35 34 34 34 34 33 33 33 33 33 32 33 32 33 33 33 33 34 34 34 34 34 35 35 35 35 35 35 35 35 35 35 35 34 34 34 33 33 33 31 29 28 26 25 25 25 25 25 26 28 26 24 22 22 22 22
38 38 38 39 39 39 39 39 40 40 40 40 40 41 41 41 41 41 41 41 41 41 41 41 40 40 40 40 40 39 39 38 38 38 37 37 37 37 37 36 36 35 35 35 35 35 36 36 36 36 35 35 35 35 35 35 35 35 35 36 35 35 35 35 35 35 35 35 34 33 32 31 30 29 28 27 26 27 29 31 29 26 24 24 25
41 41 41 41 41 42 42 42 42 42 42 42 42 42 42 42 42 42 42 43 43 43 43 42 42 42 42 42 42 42 42 41 41 41 40 40 41 40 40 40 40 39 39 39 38 38 39 39 39 39 39 39 38 38 38 37 37 37 37 37 37 37 36 35 35 35 35 35 35 35 34 33 33 32 31 30 30 29 29 32 33 31 28 26 25
38 38 37 37 37 37 38 38 38 38 38 38 37 37 37 37 36 36 36 36 36 36 36 36 36 36 36 36 36 36 37 37 37 38 38 38 39 39 40 40 40 41 41 41 41 41 41 42 41 42 41 41 42 41 41 41 41 40 40 40 40 39 39 38 37 37 36 36 36 35 35 35 34 33 33 32 31 31 30 32 35 36 34 30 28
27 26 25 24 24 23 23 23 23 22 22 22 22 21 21 21 21 21 21 20 21 21 21 21 21 21 21 21 21 22 22 23 23 23 24 25 26 27 27 28 29 30 31 32 33 34 36 37 38 39 40 41 42 42 43 43 43 43 43 43 42 42 42 41 40 40 39 39 38 37 36 36 35 35 34 33 32 31 30 30 33 35 36 36 35
15 14 14 13 13 13 13 13 12 12 12 12 12 12 12 12 12 12 12 12 12 12 12 12 12 12 12 12 12 13 12 13 13 13 14 14 14 14 14 15 15 16 16 17 18 19 19 21 23 24 26 28 29 31 33 35 37 38 40 41 42 43 43 43 43 42 41 41 40 39 38 37 36 35 35 34 32 31 29 29 30 31 33 36 39
11 11 11 11 11 11 11 11 11 11 11 11 10 10 10 10 10 10 10 10 10 10 10 10 10 10 10 10 10 10 10 10 11 11 11 11 11 11 11 11 12 11 12 11 11 12 12 12 13 13 13 14 15 16 17 19 20 22 25 27 29 31 33 35 37 38 39 40 40 40 40 39 38 37 36 35 33 31 30 29 29 30 31 33 37
11 11 11 10 10 10 10 10 10 10 10 10 9 9 10 9 9 9 9 9 9 9 9 9 9 9 9 9 9 9 9 9 10 9 10 10 10 10 10 10 11 11 11 11 11 11 11 11 11 11 11 11 11 11 11 12 12 13 13 14 15 16 18 19 22 24 26 28 30 32 34 35 36 37 36 36 36 34 33 32 31 31 32 32 34
10 10 10 10 10 9 10 9 9 9 9 9 9 8 9 8 8 9 8 8 8 8 8 8 8 8 8 8 8 8 9 9 9 9 9 9 9 9 9 9 9 9 9 9 10 9 10 10 9 10 10 10 10 10 10 11 11 11 11 11 12 12 12 12 13 13 14 15 16 18 19 22 24 26 28 30 31 33 33 33 33 32 33 34 34
10 10 10 10 10 9 9 9 9 9 8 9 9 8 8 8 8 9 9 9 9 9 9 9 8 8 8 8 8 8 8 8 8 8 8 8 8 8 8 8 8 8 8 8 8 8 8 8 8 8 8 8 8 8 9 9 9 9 10 10 10 10 11 11 11 11 12 12 12 12 12 13 14 15 16 18 20 22 24 26 28 29 30 32 34
9 9 10 9 10 9 9 9 8 8 8 8 8 8 8 8 8 8 9 9 9 9 10 10 10 10 10 10 10 9 9 9 8 8 8 8 8 8 8 8 8 8 8 8 8 8 8 8 8 8 8 7 7 7 7 7 7 7 8 8 8 8 9 9 10 10 10 11 11 11 11 11 12 12 12 12 13 13 14 15 17 20 21 24 27
9 9 9 9 9 9 9 9 9 8 8 8 8 8 8 8 8 8 9 9 9 9 10 10 10 10 11 11 11 11 11 11 11 10 10 10 9 9 9 8 8 8 8 8 8 8 7 8 8 8 8 7 7 7 7 7 7 7 7 7 7 7 7 7 8 8 8 9 9 9 10 10 10 11 11 11 11 11 11 11 11 12 13 15 17
9 9 9 8 8 9 9 9 10 9 9 9 8 8 8 9 9 9 9 9 9 10 10 10 10 9 10 10 10 10 10 10 10 10 10 10 10 10 10 10 10 9 9 8 8 8 7 7 7 7 7 7 7 7 7 7 7 7 7 7 7 7 7 7 7 7 6 7 7 7 8 8 8 9 9 9 10 10 10 11 11 11 11 11 11
9 9 9 9 9 10 10 10 11 11 11 10 10 10 10 10 10 10 10 10 10 10 10 10 9 9 9 9 8 8 8 8 8 8 8 8 8 9 9 9 10 10 10 10 9 9 8 8 7 7 7 7 7 7 7 7 7 7 7 7 7 7 7 7 6 7 7 6 7 6 6 7 6 7 7 7 8 8 9 9 10 10 10 10 9
12 12 12 12 12 12 12 12 13 12 12 12 11 11 10 10 10 10 10 10 10 10 10 9 9 9 8 8 8 7 7 7 7 7 6 6 6 7 7 7 7 8 8 8 9 9 9 9 8 8 7 7 7 6 6 7 6 7 7 6 7 7 6 7 7 6 7 6 6 6 6 6 6 6 6 6 6 6 6 7 7 7 8 9 8
13 14 13 13 13 12 12 12 12 13 13 13 13 12 12 11 11 11 11 11 10 10 10 10 9 9 8 8 8 7 7 7 7 7 6 6 6 6 6 6 6 6 6 6 7 7 7 8 8 8 8 8 8 7 7 7 6 6 6 6 6 6 6 6 6 6 6 6 6 6 6 6 6 6 6 6 6 6 6 6 6 6 6 7 7
13 13 12 12 12 12 11 11 11 12 12 13 13 13 13 12 12 13 12 11 11 11 11 10 10 10 9 9 9 8 8 8 7 7 7 7 7 6 6 6 6 6 6 5 6 6 6 6 6 7 7 7 7 8 7 7 7 6 6 6 6 6 6 6 6 6 6 6 6 6 6 6 6 6 6 6 6 6 6 5 5 5 5 5 6
11 12 11 12 12 12 11 11 11 11 12 12 12 13 13 13 13 13 12 12 12 11 11 11 11 10 10 10 9 9 9 8 8 8 7 7 7 7 7 7 6 6 6 6 6 6 5 5 6 5 6 6 6 6 7 6 7 6 6 6 6 6 6 5 6 6 5 6 6 6 6 6 6 6 6 6 6 5 5 5 5 5 5 5 5
11 12 12 12 12 12 12 11 10 11 11 11 12 12 12 12 12 12 12 12 11 11 11 11 11 10 10 10 9 9 9 8 8 7 7 7 7 7 6 6 7 6 6 6 6 6 6 5 6 5 5 6 5 5 6 5 6 6 6 6 6 6 6 6 5 5 5 5 5 5 5 6 5 6 6 5 5 5 5 5 5 5 5 5 5
14 14 14 14 14 13 13 13 12 11 11 11 11 12 12 12 12 12 12 11 10 10 10 10 9 9 9 8 8 8 8 7 7 6 6 6 6 6 6 6 6 6 6 6 6 6 6 6 6 6 5 6 6 5 5 5 5 5 5 5 5 5 6 6 5 6 5 5 5 5 5 5 5 5 5 5 5 5 5 5 5 5 5 5 5
15 15 15 14 14 14 13 13 13 11 11 11 11 11 11 11 12 11 11 10 9 9 9 8 8 8 8 7 7 7 7 6 6 6 5 6 5 5 6 5 6 6 6 6 6 6 6 6 6 6 6 6 6 5 5 5 5 5 5 5 5 5 5 5 5 5 5 5 5 5 5 5 5 5 5 5 5 5 5 5 5 5 5 5 5
15 15 16 16 15 15 14 13 13 12 11 11 10 11 11 10 11 11 10 9 9 8 8 7 7 7 7 7 6 6 6 5 5 5 5 5 5 5 6 5 5 6 5 5 6 6 6 6 5 5 6 5 5 5 5 5 5 5 5 5 5 5 5 5 6 6 5 5 5 5 5 5 5 5 4 4 5 4 4 5 5 5 5 5 5
16 16 16 17 17 16 15 15 14 14 12 11 11 11 10 10 10 10 9 8 7 7 7 7 7 7 6 6 6 6 6 6 5 6 5 5 6 5 5 5 5 5 5 5 5 5 5 6 5 5 5 5 5 5 5 5 5 5 5 5 5 6 6 6 6 6 6 6 5 5 5 5 5 5 4 4 4 4 4 4 4 4 4 4 4
16 16 16 18 17 16 16 15 15 14 12 11 11 11 10 9 9 9 8 7 7 6 6 6 6 6 6 6 6 5 6 6 5 6 6 5 6 6 5 5 5 5 5 5 5 5 5 5 5 5 5 5 5 5 5 5 5 5 5 5 5 6 6 6 6 6 6 6 6 6 5 5 5 5 4 4 4 4 4 4 4 4 4 4 4
15 17 17 17 17 16 15 14 14 14 12 11 10 10 10 9 8 8 7 7 7 6 6 6 6 6 6 5 6 6 6 6 6 6 6 6 6 6 5 6 6 5 5 5 5 5 5 5 5 5 5 5 5 5 5 4 4 4 4 4 5 5 6 6 6 6 6 6 6 6 6 5 5 5 5 5 4 4 4 4 4 4 3 3 3
16 17 17 18 17 15 14 13 13 13 12 10 9 9 9 9 8 8 7 6 6 6 6 6 6 6 6 5 6 6 6 6 6 6 6 6 6 6 6 6 6 6 6 6 6 5 5 5 5 5 5 5 5 5 5 4 4 4 4 4 5 5 5 5 5 5 5 5 5 5 5 5 5 5 5 5 5 4 4 4 4 3 3 3 3
17 17 18 19 19 16 14 13 12 12 11 10 9 8 9 9 8 8 7 6 6 6 6 6 6 6 6 5 6 6 6 6 7 6 6 6 6 6 6 6 6 6 6 6 6 6 6 6 5 5 5 5 5 5 5 5 5 4 5 5 5 5 5 5 5 5 5 5 5 5 5 4 4 4 4 4 4 4 4 4 4 3 3 3 3
17 17 17 18 18 15 13 12 11 10 10 8 8 8 8 8 8 7 7 6 6 6 6 6 6 6 5 6 6 6 7 6 6 6 6 6 6 6 6 6 6 6 6 6 6 6 6 6 6 6 6 5 5 5 5 5 5 5 5 5 5 5 6 6 6 6 5 5 5 5 5 5 4 4 4 4 4 4 3 3 3 3 4 3 3
15 15 14 14 15 13 12 12 10 9 9 7 7 7 7 7 7 7 7 6 6 6 6 6 6 5 5 6 6 6 6 6 6 6 5 6 6 6 6 6 6 6 6 6 6 6 6 6 5 5 5 5 5 5 5 5 5 5 5 5 6 6 6 6 6 5 5 5 5 5 5 5 5 4 4 4 3 3 3 3 3 3 4 4 4
14 13 13 12 13 13 11 11 10 8 8 7 7 7 7 7 7 6 6 6 6 6 6 5 5 5 5 6 6 6 6 5 5 5 5 5 5 5 5 5 6 6 6 5 6 5 5 5 5 5 5 5 5 4 4 4 4 5 5 5 6 5 6 6 5 5 5 5 5 5 5 5 5 4 4 4 4 3 3 4 3 3 3 3 4
15 14 13 12 12 12 10 10 9 8 7 7 7 7 7 6 7 6 6 6 6 6 5 5 5 5 5 6 6 6 5 5 5 5 5 5 5 5 5 5 5 6 5 5 5 5 5 5 5 5 4 4 4 4 4 4 4 4 5 5 5 5 5 5 5 5 5 5 5 5 5 5 5 4 4 4 4 4 4 4 4 3 4 4 4
15 14 13 12 11 11 10 8 8 7 7 7 7 7 6 6 6 6 6 6 6 5 5 5 5 5 5 5 5 5 5 5 5 5 5 5 5 5 5 5 6 6 5 6 6 5 6 5 5 5 4 4 4 4 4 4 4 4 4 4 5 5 5 5 5 5 5 5 5 4 4 4 4 4 5 4 4 4 4 4 4 3 4 4 4
16 14 12 11 10 10 8 7 7 7 7 7 6 6 6 6 6 6 6 6 5 5 5 5 5 5 5 5 5 5 5 5 5 5 5 5 5 5 5 5 5 6 6 6 6 6 6 6 5 5 4 4 4 4 4 4 4 4 4 4 4 4 4 4 4 4 4 4 4 4 4 4 4 4 4 4 4 4 4 4 4 4 4 4 4
16 14 12 11 10 8 7 7 7 7 6 6 6 6 5 5 5 5 5 5 5 5 5 5 5 5 5 5 5 5 5 5 5 5 5 5 5 5 5 5 5 6 6 6 6 6 6 6 5 5 5 4 4 4 4 4 5 5 4 4 4 4 4 5 4 4 4 4 4 4 4 4 4 4 4 4 4 4 4 4 4 4 4 4 4
16 14 12 10 9 7 7 7 6 6 6 6 6 5 5 5 5 5 5 5 5 5 5 5 5 5 5 5 5 5 5 5 5 5 5 5 5 5 5 5 5 5 5 5 6 6 6 6 5 5 5 5 4 4 5 5 5 5 5 4 5 5 4 5 5 4 4 4 4 4 4 4 4 4 4 4 4 4 4 4 4 4 4 4 4
15 14 12 10 8 7 6 6 6 6 5 5 5 5 5 5 5 5 5 5 5 5 5 5 5 5 5 5 5 5 5 5 5 5 5 5 5 5 5 5 5 5 5 5 5 5 5 5 5 5 5 4 4 4 5 5 6 5 5 5 5 5 5 5 5 5 4 4 4 4 4 4 4 4 4 4 4 4 4 3 4 4 4 4 4
14 13 11 9 8 7 6 6 5 5 5 5 5 5 5 5 5 5 5 5 5 5 5 5 5 5 5 5 5 5 5 5 5 5 5 5 5 5 5 5 5 5 5 5 5 5 5 5 5 5 4 4 4 4 4 5 6 5 5 5 5 5 5 5 5 5 4 4 4 4 5 4 4 4 4 4 4 4 4 4 3 3 4 4 4
13 11 9 8 7 7 7 6 5 5 5 5 5 5 5 5 5 5 5 5 5 5 5 5 5 5 5 5 5 5 5 5 5 5 5 5 5 5 5 5 5 6 6 6 6 5 6 5 5 5 4 4 4 4 4 4 5 5 5 5 5 5 5 5 5 5 4 4 5 5 5 4 4 4 4 4 4 4 4 4 4 4 4 4 4
12 10 9 7 7 7 7 6 5 5 5 5 5 5 5 5 4 5 5 5 5 5 5 5 5 5 5 5 5 5 5 5 5 5 5 5 5 5 6 5 6 6 6 6 6 6 6 6 5 5 4 4 4 4 4 4 5 5 5 5 4 5 5 5 5 4 4 4 5 5 5 5 4 4 4 4 4 4 4 4 4 4 4 3 4
12 10 8 7 7 7 7 6 6 6 5 5 5 5 5 5 4 5 5 5 5 5 5 5 5 5 5 5 5 5 5 5 5 5 5 5 5 5 6 6 6 6 6 6 6 6 6 6 6 5 5 4 4 4 4 4 5 5 5 5 4 5 5 5 5 4 4 4 5 5 5 5 5 5 5 5 4 4 4 4 4 4 4 4 4
12 10 8 8 8 7 6 6 6 5 5 5 5 5 5 5 4 5 5 4 5 5 4 5 5 5 5 5 5 5 5 5 5 5 5 5 5 5 6 6 5 6 6 6 6 6 6 6 6 5 5 5 4 4 4 4 5 5 5 5 5 5 5 5 4 4 4 4 5 5 5 5 5 5 5 5 5 4 4 4 4 4 4 4 4
11 9 8 8 7 6 6 6 5 5 5 5 5 5 5 5 5 5 5 5 5 5 5 5 5 5 5 5 5 5 5 5 5 5 5 5 5 5 5 6 5 6 6 6 7 6 6 6 6 5 5 5 4 4 4 4 5 5 5 5 5 5 6 5 5 4 4 4 4 5 5 5 5 5 5 5 5 5 4 4 4 4 4 4 4
11 9 8 8 7 6 6 5 5 5 5 5 5 5 5 5 5 4 5 5 5 5 5 5 5 5 5 5 5 5 5 5 5 5 5 5 5 5 5 5 6 6 6 6 7 7 6 6 6 6 5 5 5 5 4 4 5 5 5 5 5 6 6 6 5 4 4 4 4 4 4 5 5 5 5 5 5 5 5 4 4 4 4 4 4
10 8 8 8 7 6 6 5 5 5 5 5 5 5 5 5 5 5 5 5 5 5 5 5 5 5 5 5 5 5 5 5 5 5 5 5 5 5 5 5 6 6 6 6 6 7 6 6 6 6 5 5 5 5 4 4 5 5 5 5 5 6 7 6 5 5 4 4 4 4 4 4 5 5 5 5 6 5 5 5 5 4 4 4 4
Wind_Speed
121 121 122 122 122 123 123 124 124 124 125 125 126 126 126 127 127 127 127 128 128 128 128 129 129 129 129 129 130 130 130 130 130 130 131 131 131 131 131 131 131 131 131 131 131 131 131 132 132 132 132 132 132 132 132 132 132 131 131 131 130 130 130 130 129 128 127 126 125 124 124 123 122 121 120 118 117 116 115 115 115 114 114 114 113
116 117 117 118 119 119 120 121 121 122 122 123 124 124 125 125 126 126 127 127 128 128 129 129 129 129 130 130 130 131 131 130 131 131 131 131 132 132 132 132 132 132 132 132 132 132 132 132 133 133 133 133 133 133 133 133 133 132 132 131 131 131 131 130 130 129 127 126 125 124 123 122 121 120 119 118 116 114 114 114 114 113 112 112 111
114 114 115 116 117 118 119 120 120 121 122 123 123 124 125 125 125 126 126 127 127 128 128 128 128 128 129 129 129 130 130 130 130 130 130 131 131 131 131 131 131 131 131 132 132 132 132 133 133 133 133 133 133 133 133 133 132 132 131 131 131 131 130 129 129 128 127 126 125 123 123 122 121 120 119 117 116 114 114 113 113 112 112 111 110
113 114 114 115 116 117 118 118 119 119 120 120 121 121 122 122 123 123 123 124 124 125 125 125 125 126 126 126 127 127 127 128 128 127 128 128 129 129 129 129 130 130 130 130 130 130 131 131 131 132 132 132 132 132 132 132 131 131 130 130 130 130 129 129 129 128 127 126 125 124 122 122 121 120 120 118 117 115 114 113 113 113 112 111 110
109 110 111 111 112 113 114 114 115 116 116 117 117 118 119 119 120 120 121 122 122 123 123 124 124 124 125 125 126 126 126 127 127 127 127 127 127 128 128 128 129 129 129 129 129 129 130 130 130 130 131 131 131 130 130 130 130 130 130 129 129 129 128 128 128 128 127 126 125 123 122 121 120 120 120 119 118 116 115 114 113 113 113 112 111
106 107 108 109 110 111 112 113 114 115 116 117 117 118 119 120 121 121 122 123 123 124 125 125 126 126 126 127 127 128 128 128 128 128 128 128 129 129 129 129 129 130 130 130 130 129 130 130 131 130 130 131 131 131 130 130 130 130 129 129 129 128 128 127 127 127 126 125 124 122 121 120 119 118 118 117 117 116 115 113 112 113 112 112 111
107 108 109 110 112 113 114 115 116 117 118 119 120 121 122 122 123 124 125 126 126 127 127 128 128 129 129 129 130 130 131 131 131 131 131 131 131 132 132 132 132 132 132 132 132 132 131 132 132 132 132 132 132 132 131 131 131 131 131 130 130 130 129 128 128 127 127 126 125 124 122 120 119 117 117 115 114 113 113 112 110 110 110 109 109
109 110 111 112 113 115 116 117 118 119 120 121 122 123 124 125 126 127 128 129 129 130 131 131 132 132 132 133 133 133 134 134 134 134 134 134 134 134 135 135 134 134 134 134 134 134 134 134 135 135 134 134 134 134 134 133 133 133 132 132 132 131 131 130 129 128 128 128 127 126 124 123 121 119 118 117 114 112 112 113 111 109 107 106 105
111 112 113 114 115 117 118 119 120 121 122 124 125 126 127 128 129 130 130 131 132 133 134 134 135 135 135 136 136 137 137 137 137 137 137 137 137 138 138 138 138 138 137 137 137 137 137 137 137 137 137 137 137 136 136 136 136 135 135 135 134 134 133 132 132 131 130 129 128 128 127 125 124 122 120 118 117 114 113 114 115 112 109 106 105
113 114 115 116 117 119 120 121 122 124 125 126 127 128 129 130 131 132 133 133 135 136 136 137 138 138 138 139 139 140 140 140 141 141 141 141 141 141 141 141 141 141 141 141 140 140 140 140 140 140 140 140 140 140 139 139 139 138 138 138 137 137 136 136 135 133 133 132 131 130 129 128 126 125 123 121 119 116 114 114 115 116 114 110 108
113 114 115 116 117 118 120 121 122 124 125 126 127 128 129 130 131 132 133 133 135 136 137 137 138 139 139 139 140 141 141 141 142 142 143 143 143 144 144 144 144 144 144 144 144 144 144 144 144 143 143 143 143 143 142 142 142 141 141 141 140 140 139 139 138 136 136 135 134 133 132 131 130 128 127 125 123 120 117 114 114 116 116 113 112
111 112 113 113 114 115 116 118 119 120 121 122 123 124 125 126 127 128 129 130 131 132 133 134 135 136 136 137 137 138 138 139 140 140 141 141 142 142 143 143 144 144 144 145 145 145 145 145 146 146 146 146 146 146 146 145 145 145 145 144 144 143 143 142 141 140 139 138 137 136 135 134 133 132 130 129 127 124 122 118 116 116 115 114 113
105 106 107 108 108 109 110 112 112 113 114 116 117 118 119 120 121 122 123 124 125 126 127 128 129 130 131 132 132 133 134 135 136 136 137 138 138 139 139 140 140 141 141 142 142 143 143 143 144 144 145 145 145 146 146 146 146 146 146 146 146 146 146 145 145 144 143 142 141 140 139 137 136 135 134 132 130 128 126 123 120 118 116 114 114
99 99 100 101 102 103 104 105 106 107 108 109 111 112 113 114 115 116 118 119 120 121 122 123 124 125 126 127 128 128 130 130 131 132 133 134 135 136 136 137 137 138 139 139 140 140 140 140 141 141 141 142 142 143 143 143 144 144 145 145 146 146 146 146 146 146 145 145 144 143 142 141 140 139 137 136 134 132 130 126 123 121 119 116 116
92 93 94 95 96 97 98 99 100 101 102 104 105 106 108 109 110 111 113 114 115 116 117 118 120 121 122 123 124 125 126 127 127 128 129 129 130 131 132 133 134 135 136 136 137 137 138 138 138 139 139 139 140 140 140 140 141 141 141 142 142 143 143 143 144 144 144 144 144 144 143 143 142 142 140 139 138 135 133 131 128 125 123 121 119
88 89 90 92 93 93 94 95 97 97 98 99 101 102 103 104 105 106 108 109 110 111 112 113 114 116 117 118 119 120 121 122 123 124 125 126 127 128 129 129 130 131 132 133 133 134 134 135 135 136 136 137 137 137 137 138 138 138 139 139 140 140 140 140 141 141 141 141 142 142 141 141 141 141 141 140 139 138 137 135 133 130 128 125 123
85 86 87 88 90 91 91 92 94 94 94 95 96 97 98 99 100 101 103 104 105 107 108 109 110 112 113 114 115 115 116 117 118 119 120 121 122 123 124 126 127 128 129 130 130 131 132 132 132 133 133 133 134 134 134 134 135 135 136 136 136 137 137 137 137 138 138 138 139 139 139 139 139 139 139 139 139 138 138 137 136 134 132 130 127
81 81 82 83 85 86 87 88 90 91 90 90 91 92 93 94 94 95 96 97 99 100 102 103 105 106 108 110 111 112 113 114 115 115 116 117 117 118 119 120 122 123 124 125 126 127 128 129 130 130 131 131 131 131 131 131 132 132 133 133 133 134 134 134 134 135 135 135 135 136 136 136 136 136 136 136 137 137 137 136 136 135 134 132 130
77 77 77 78 79 80 82 83 85 87 87 87 87 87 87 88 89 89 90 91 92 94 96 97 99 100 101 103 105 107 108 110 111 112 113 114 115 116 116 117 118 119 119 120 121 122 123 124 125 126 127 128 129 129 129 129 129 130 130 130 130 131 131 131 132 132 132 132 132 133 133 133 133 133 133 133 134 134 135 135 135 134 134 133 131
73 74 75 75 76 77 78 80 82 83 85 85 85 85 84 85 86 86 87 87 88 90 92 94 95 96 97 98 100 101 103 104 106 107 109 110 111 113 114 115 116 117 117 118 118 119 119 120 120 121 122 123 124 125 126 126 127 127 128 128 128 128 128 128 128 129 129 130 130 130 130 131 131 131 131 131 131 131 132 132 132 133 133 132 132
72 73 74 75 75 76 76 77 79 81 83 84 85 85 84 84 85 85 85 86 87 88 90 92 93 94 95 96 97 98 99 101 102 103 104 105 106 108 109 111 112 114 115 116 117 118 118 118 118 118 118 119 119 120 121 122 123 123 124 124 124 125 125 125 126 126 126 126 127 127 127 128 128 128 128 128 128 129 129 130 130 130 131 131 130
70 71 72 73 74 74 74 74 76 78 80 82 83 85 84 84 84 85 85 86 87 88 89 90 91 93 93 94 95 96 97 98 99 99 100 101 102 103 104 105 107 108 110 112 114 115 117 117 118 118 118 117 117 117 117 118 118 119 119 120 120 120 121 122 122 123 123 123 123 124 124 125 125 125 126 126 126 127 127 127 128 128 128 129 129
67 68 69 70 71 72 72 72 72 74 76 78 80 83 84 84 85 85 86 86 87 87 88 90 91 92 92 93 94 95 95 96 96 97 97 98 98 99 100 101 102 103 104 106 108 110 112 113 115 116 117 117 117 117 117 116 116 115 115 115 115 116 116 117 118 119 119 120 120 120 121 122 122 122 122 123 124 124 125 125 125 126 126 126 126
65 67 68 69 70 71 72 71 71 71 73 75 76 79 82 83 83 85 86 86 87 87 88 88 90 91 92 92 93 94 94 94 95 95 95 96 96 96 97 97 98 98 99 101 102 103 105 107 109 111 113 114 115 116 117 117 116 115 114 113 113 113 113 113 114 114 115 115 116 117 118 119 119 119 119 120 121 121 122 122 122 123 123 123 124
64 66 67 68 69 71 72 72 71 70 72 73 74 76 78 80 81 83 84 85 86 86 86 87 88 90 90 91 92 92 93 93 93 93 93 94 94 94 94 95 95 96 96 97 98 98 99 100 102 104 106 108 110 112 113 115 115 115 114 113 113 112 112 111 111 111 111 111 112 113 114 115 116 116 117 117 118 118 119 119 119 120 121 121 121
68 69 69 69 70 71 72 73 72 71 71 72 73 75 77 78 79 80 82 83 84 84 85 86 87 88 89 89 90 90 91 91 91 91 91 91 91 91 92 92 92 93 93 94 95 95 96 96 97 99 100 102 104 106 108 109 111 111 112 112 112 112 111 111 110 110 109 109 109 110 110 111 112 113 114 115 115 116 116 116 116 117 118 118 118
74 74 73 72 72 72 73 74 75 74 73 72 73 74 75 77 78 80 81 82 83 83 83 84 85 86 86 87 87 88 88 89 88 87 87 87 88 88 88 88 89 89 90 91 92 93 93 94 94 95 96 97 99 100 102 103 104 106 107 108 109 109 109 109 109 109 109 108 108 108 108 108 109 109 110 111 112 113 113 113 113 114 114 115 115
77 77 76 76 75 75 75 75 76 76 75 74 74 74 75 76 77 79 80 81 82 82 82 82 83 84 84 84 84 85 85 86 85 84 84 84 84 84 85 85 85 86 87 88 89 90 91 92 92 93 94 94 95 96 97 98 99 100 101 102 103 104 105 105 106 107 107 107 107 107 107 107 107 107 107 108 108 109 110 111 111 112 112 112 112
82 81 81 81 80 79 78 78 78 79 78 76 76 76 75 75 76 78 80 80 80 81 81 81 81 82 81 81 81 82 83 82 82 82 81 81 81 81 81 81 82 83 84 85 86 86 88 89 90 91 91 92 93 94 94 94 95 96 96 97 98 99 99 100 102 102 103 104 104 104 104 104 105 105 105 106 106 107 107 108 109 110 111 110 110
86 86 85 85 84 83 82 81 81 82 81 79 78 78 77 76 76 77 78 78 78 78 79 79 79 80 79 79 80 80 80 80 80 80 79 78 78 78 78 79 79 80 81 81 82 83 84 86 87 88 89 90 91 92 91 91 92 92 93 93 94 95 95 96 97 98 99 100 101 101 101 102 102 102 103 104 104 105 105 105 106 107 109 109 109
89 89 88 88 87 86 85 84 84 85 84 82 80 79 79 79 78 79 79 78 77 77 77 77 77 77 78 78 78 78 78 78 78 77 77 76 76 76 76 77 77 78 79 79 79 80 81 82 83 85 86 87 88 89 89 88 89 89 89 89 90 91 92 92 93 94 95 97 98 99 99 99 100 100 101 101 101 102 102 103 103 105 106 107 106
92 92 91 90 90 88 87 86 86 87 87 85 82 81 81 81 80 81 80 79 78 77 76 76 76 76 77 76 76 75 75 76 75 75 75 74 74 74 74 75 75 76 76 77 77 78 78 79 80 81 82 84 85 86 85 85 85 86 86 85 85 86 87 88 90 91 92 93 94 95 96 97 98 98 99 99 99 99 100 100 101 102 103 103 103
96 94 94 93 92 91 90 88 87 88 88 87 86 84 84 83 83 82 82 80 79 78 76 76 76 76 76 75 73 73 73 73 73 72 73 73 72 72 73 73 73 74 74 75 75 75 76 76 77 78 79 80 82 82 81 81 82 82 82 81 81 81 82 84 86 87 88 90 91 93 93 94 95 96 97 97 97 97 98 98 98 99 99 99 99
98 97 96 95 95 93 92 90 88 87 87 87 86 85 84 84 83 83 82 80 79 77 76 75 76 76 75 73 71 71 71 71 71 71 71 71 70 71 71 71 71 72 72 72 73 73 73 74 74 74 76 77 78 78 77 77 78 78 78 78 77 77 78 80 82 84 86 88 89 90 91 92 93 94 94 95 95 96 96 95 94 94 93 93 93
99 97 95 94 94 94 93 92 90 89 88 87 86 84 83 83 83 82 81 80 78 77 75 75 75 74 72 71 70 69 69 70 70 70 69 69 69 69 69 69 69 70 71 71 71 71 71 72 72 72 72 74 75 74 73 73 74 74 74 74 74 74 75 77 79 81 83 85 87 88 88 89 90 91 92 93 93 93 92 91 89 89 89 89 89
99 97 94 93 94 94 94 94 93 91 90 88 86 85 83 82 82 81 80 79 77 76 75 74 74 72 70 69 68 68 68 69 69 69 68 67 67 67 68 68 68 68 69 69 69 69 70 70 71 70 70 71 72 71 69 69 70 70 70 70 71 72 73 75 77 79 81 82 84 85 86 86 87 88 90 91 91 89 87 86 85 85 86 85 86
101 99 97 96 96 96 95 95 94 93 90 88 86 84 83 82 81 80 79 78 76 75 75 74 72 71 69 68 67 67 68 68 68 67 67 66 66 66 66 66 66 67 67 68 68 68 68 69 69 69 69 69 70 69 67 66 66 66 66 67 68 69 71 73 75 77 78 79 81 82 83 83 84 85 87 88 88 85 83 83 83 83 82 82 83
105 103 100 98 98 98 97 96 95 93 91 89 87 85 83 81 81 80 79 77 76 75 74 72 71 69 68 67 66 67 67 67 66 66 65 65 64 64 64 64 64 65 65 66 66 67 67 68 68 68 68 68 68 68 66 64 64 64 63 64 66 67 69 71 73 74 75 76 78 79 80 80 81 82 83 84 84 83 81 80 81 80 79 80 82
107 105 102 100 99 99 98 96 94 92 90 88 86 84 83 81 80 79 78 77 76 75 73 71 70 68 67 66 66 66 66 66 65 64 64 63 63 62 62 62 62 63 64 64 64 65 65 67 67 67 67 66 66 65 64 62 61 61 61 62 64 66 67 69 69 70 71 73 74 74 75 76 76 77 78 79 80 80 78 78 78 77 77 79 82
108 106 104 102 100 99 98 96 93 91 89 87 86 84 82 80 79 78 77 76 75 73 72 70 69 67 66 66 65 65 65 64 63 62 62 62 61 61 61 61 61 61 61 62 63 63 64 65 66 66 65 65 64 62 61 59 58 59 60 60 61 63 65 65 65 66 68 69 69 70 72 73 72 72 73 74 76 76 76 75 75 75 76 78 81
109 107 105 104 102 99 96 94 92 90 88 87 85 84 82 80 78 77 76 75 74 72 70 69 67 66 66 65 64 64 63 62 62 61 61 60 60 59 59 59 59 59 60 60 61 62 63 64 65 64 64 63 62 59 57 56 56 57 58 59 59 61 61 61 62 64 65 65 65 67 68 68 68 67 68 70 72 73 72 71 72 73 74 76 77
108 107 106 104 102 99 96 93 91 89 87 85 84 83 81 79 77 76 75 74 72 71 69 67 66 66 65 64 63 63 62 61 60 59 59 59 58 57 57 57 57 57 57 58 59 60 61 62 63 63 62 62 60 56 54 53 55 56 57 57 57 58 58 57 59 62 62 62 62 63 63 64 64 64 64 66 68 69 68 68 69 71 72 73 74
108 107 106 104 102 99 96 93 90 88 86 84 82 80 79 78 76 75 74 73 71 69 68 67 66 65 64 63 62 62 60 60 59 58 58 58 57 56 56 55 55 55 55 56 57 58 59 60 61 62 61 60 58 54 51 51 54 56 56 55 55 55 54 55 57 59 59 59 58 58 58 61 62 61 61 62 63 64 65 65 67 68 69 70 71
108 107 105 103 101 98 96 93 90 87 85 83 81 79 78 76 75 74 73 71 70 68 67 66 65 63 63 62 61 60 59 58 57 57 57 57 56 55 55 54 53 53 53 54 55 56 56 57 59 60 60 58 56 53 50 49 52 55 55 54 54 53 52 53 55 57 57 55 54 54 56 58 59 58 58 58 59 60 61 63 64 64 66 67 68
109 107 105 103 100 98 96 94 92 89 86 84 81 79 77 76 74 73 72 70 69 67 66 65 63 62 61 61 60 59 58 57 56 56 56 55 54 54 53 52 51 51 52 52 53 54 54 56 57 58 59 57 55 52 49 47 49 52 54 53 52 52 51 52 54 55 54 52 51 52 54 55 55 54 55 55 56 56 57 59 61 62 63 64 64
109 108 105 102 100 98 96 95 93 90 88 85 82 79 77 75 74 72 70 69 67 66 65 63 62 61 60 60 59 58 57 56 55 55 54 54 53 52 51 51 50 50 51 51 52 52 53 55 56 57 57 56 54 51 48 46 46 49 51 51 51 50 50 52 53 53 52 50 49 51 53 53 51 51 52 53 53 54 55 57 58 60 60 60 61
110 108 106 103 100 98 96 94 92 89 87 84 82 79 77 75 73 71 69 68 66 65 64 62 61 60 59 59 58 57 56 55 55 54 53 52 51 50 50 49 49 49 50 50 50 51 52 54 56 57 56 55 53 51 48 45 45 46 48 49 49 48 48 51 52 52 49 47 47 49 51 50 49 49 50 50 51 51 53 54 56 57 58 58 58
110 108 105 102 99 97 94 92 90 87 85 83 81 79 77 75 72 70 69 67 66 64 63 61 60 60 59 58 57 56 55 55 54 53 52 51 50 49 48 48 47 48 49 49 50 50 51 52 54 55 55 54 53 50 47 46 44 44 46 47 46 45 46 49 51 51 47 45 45 47 48 48 47 47 47 47 48 49 50 52 53 55 55 56 56
109 107 104 101 98 95 93 90 88 85 84 82 80 78 76 74 72 70 68 66 65 64 62 60 59 59 58 57 56 55 54 54 53 53 52 51 49 48 47 47 46 46 47 48 49 50 50 51 53 54 53 53 52 50 47 45 44 43 44 44 44 43 44 48 50 49 45 43 44 45 46 45 45 45 44 44 46 47 48 49 51 52 53 53 54
108 106 103 100 97 94 92 89 87 85 83 81 79 77 75 73 71 69 67 65 64 63 61 60 58 58 57 56 55 54 54 53 52 52 51 50 49 47 46 45 45 45 45 46 47 48 49 50 51 52 52 52 51 50 48 45 43 42 42 42 41 41 43 47 49 48 44 41 42 43 44 43 43 42 42 42 44 45 46 47 48 50 51 51 52
107 104 101 98 96 93 91 89 86 84 82 80 78 76 74 72 70 68 66 64 63 61 60 59 58 57 56 55 54 54 53 52 52 51 50 50 49 47 45 43 43 43 44 45 46 46 47 48 49 50 51 50 49 49 48 45 43 42 40 39 38 38 41 45 47 46 43 40 40 41 42 41 40 40 40 41 42 43 44 45 46 48 48 49 49
Wind_Direction
274 274 274 274 274 274 275 274 274 274 274 274 274 274 274 274 274 274 274 273 273 273 273 272 272 272 272 271 271 271 271 270 270 270 270 269 269 269 269 268 268 268 268 268 268 268 267 267 267 267 267 267 267 267 267 267 267 267 267 267 267 267 267 267 267 267 267 266 266 266 265 265 265 264 264 263 262 262 262 262 261 261 261 260 260
275 275 275 275 275 275 275 275 275 275 274 274 274 274 274 274 274 274 274 273 273 273 273 273 272 272 272 271 271 271 271 270 270 270 269 269 269 269 268 268 268 268 268 267 267 267 267 267 267 267 267 267 267 267 267 267 267 267 267 267 267 267 267 266 266 266 266 265 265 265 265 264 264 264 263 263 262 262 261 261 261 260 260 260 260
275 275 275 275 275 275 275 274 274 274 274 274 274 274 274 274 274 273 273 273 273 273 273 272 272 272 272 271 271 271 271 270 270 270 269 269 269 269 269 268 268 268 268 268 267 267 267 267 267 267 267 267 266 266 267 267 266 266 266 266 266 266 266 266 266 265 265 265 265 264 264 264 264 264 263 263 262 261 261 261 261 260 260 259 259
275 275 275 275 275 275 275 275 275 274 274 274 274 274 274 274 274 274 274 274 273 273 273 273 273 272 272 272 272 271 271 271 271 270 270 270 270 269 269 269 269 269 268 268 268 268 268 267 267 267 267 267 267 266 266 266 266 266 266 266 266 266 266 266 265 265 265 265 264 264 264 264 264 264 263 263 262 261 261 261 260 260 260 259 259
277 277 277 276 276 276 276 276 276 276 276 276 276 276 275 275 275 275 275 275 274 274 274 274 274 273 273 273 273 272 272 272 271 271 271 271 270 270 270 270 269 269 269 269 268 268 268 268 268 268 267 267 267 267 267 267 266 266 266 266 266 266 265 265 265 265 265 265 264 264 264 263 263 263 263 263 262 262 261 260 260 260 260 259 259
278 278 278 278 278 278 278 277 277 277 277 277 277 277 276 276 276 276 275 275 275 275 274 274 274 274 273 273 273 273 272 272 272 271 271 271 271 270 270 270 270 269 269 269 269 268 268 268 268 268 268 268 267 267 267 267 267 267 266 266 266 266 265 265 265 265 265 265 264 264 263 263 263 262 262 262 262 262 261 260 260 259 259 259 259
279 279 279 279 279 279 278 278 278 278 278 278 277 277 277 277 277 276 276 276 275 275 275 275 275 274 274 274 273 273 273 273 272 272 272 271 271 271 270 270 270 269 269 269 269 269 268 268 268 268 268 268 267 267 267 267 267 267 267 267 266 266 266 266 265 265 265 265 265 264 264 263 262 262 262 261 261 262 262 261 260 259 259 258 258
280 279 279 279 279 279 279 278 278 278 278 278 278 277 277 277 277 277 276 276 276 276 276 275 275 275 275 274 274 274 274 273 273 273 272 272 272 271 271 271 270 270 270 270 269 269 269 269 269 268 268 268 268 267 267 267 267 267 267 267 266 266 266 266 266 265 265 265 265 265 264 263 262 261 261 261 260 260 261 261 260 259 258 258 257
280 280 279 279 279 278 278 278 278 278 277 277 277 277 277 276 276 276 276 276 275 275 275 275 275 275 274 274 274 274 274 273 273 273 273 273 272 272 272 271 271 271 270 270 270 269 269 269 269 269 268 268 268 268 268 267 267 267 267 267 267 266 266 266 266 265 265 265 265 265 264 264 263 262 261 260 259 259 259 260 260 259 258 257 256
279 279 278 278 278 278 278 277 277 277 277 276 276 276 276 276 275 275 275 275 275 274 274 274 274 274 274 273 273 273 273 273 273 273 272 272 272 272 271 271 271 271 271 270 270 269 269 269 269 268 268 268 268 268 268 267 267 267 267 267 266 266 266 266 266 265 265 265 265 265 264 264 264 263 262 261 260 258 257 257 259 259 258 257 256
279 279 279 278 278 278 278 277 277 277 277 276 276 276 276 276 276 275 275 275 275 274 274 274 274 274 274 273 273 273 273 272 272 272 272 271 271 271 271 271 270 270 270 270 269 269 269 268 268 268 268 268 267 267 267 267 267 267 267 266 266 266 266 266 265 265 265 264 264 264 264 264 263 263 262 261 260 259 258 256 257 258 258 258 256
280 280 280 280 280 279 279 278 278 278 278 277 277 277 277 276 276 276 276 276 275 275 275 275 275 274 274 274 274 273 273 273 273 272 272 272 271 271 271 271 270 270 270 269 269 269 268 268 268 267 267 267 267 266 266 266 266 266 266 266 266 265 265 265 265 265 265 264 264 264 263 263 263 262 262 261 261 259 258 257 256 256 256 257 257
282 282 282 282 281 281 280 280 280 279 279 279 278 278 277 277 277 277 277 276 276 276 275 275 275 275 275 274 274 274 274 273 273 273 273 273 272 272 272 271 271 271 270 270 270 269 269 268 268 267 267 267 266 266 266 265 265 265 265 265 265 265 265 265 264 264 264 264 264 263 263 263 262 262 262 261 260 260 259 257 256 255 255 255 256
284 284 283 283 282 282 281 281 280 280 280 279 279 279 278 278 278 277 277 277 277 276 276 276 276 275 275 275 274 274 274 274 273 273 273 273 272 272 272 272 272 271 271 271 271 270 270 269 269 269 268 268 267 267 266 266 265 265 265 265 264 264 264 264 264 264 263 263 263 263 263 263 262 262 262 261 261 260 259 258 257 256 255 254 254
286 285 285 284 283 283 282 282 281 281 280 280 279 279 279 278 278 278 277 277 277 276 276 276 275 275 275 275 275 274 274 274 274 273 273 273 272 272 272 272 271 271 271 271 271 270 270 270 270 269 269 269 268 268 267 267 266 266 266 265 265 264 264 264 263 263 263 263 263 262 262 262 262 262 261 261 261 260 260 259 258 256 255 253 252
289 289 288 287 287 286 285 284 284 283 282 282 281 281 280 280 279 279 278 278 278 277 277 276 276 275 275 274 274 274 274 273 273 273 273 273 272 272 272 272 272 271 271 271 271 271 270 270 270 269 269 269 268 268 268 267 267 267 266 266 265 265 265 264 264 263 263 263 263 262 262 261 261 261 261 260 260 260 259 258 257 256 255 253 252
291 291 290 290 289 288 287 286 285 284 284 283 282 282 281 280 280 279 279 278 278 278 278 277 277 277 276 276 276 275 275 274 274 273 273 272 272 272 272 271 271 271 271 271 271 271 270 270 270 270 269 269 269 268 268 268 267 267 267 266 266 265 265 265 264 264 263 263 263 262 262 261 261 261 260 260 260 259 258 258 257 256 255 253 252
293 292 292 291 291 290 289 289 288 287 285 284 283 283 282 281 281 280 279 278 278 277 277 276 276 276 276 276 276 276 276 276 275 275 274 274 273 273 272 272 271 271 270 270 270 270 270 270 269 269 269 269 269 268 268 268 267 267 267 266 266 266 265 265 265 264 264 263 263 263 262 262 261 261 260 260 259 259 258 257 257 256 255 253 252
295 294 294 293 292 292 292 291 291 290 289 287 286 285 284 284 283 282 281 280 279 279 278 277 276 275 275 275 274 274 274 274 274 274 274 274 274 274 273 273 273 272 271 271 270 270 269 269 269 269 268 268 268 268 268 268 267 267 266 266 266 265 265 265 264 264 264 263 263 263 262 262 261 261 260 260 259 258 258 257 257 256 255 254 252
298 297 297 296 296 295 295 295 294 294 293 292 291 290 289 288 287 286 285 284 283 282 281 280 279 278 277 276 275 275 274 274 274 273 273 273 273 273 273 273 273 273 272 272 271 271 270 269 269 268 268 268 268 267 267 267 267 267 266 266 266 265 265 265 264 264 263 263 263 262 262 262 261 261 260 259 259 258 258 257 257 256 255 254 252
304 304 303 302 301 300 300 299 299 298 297 296 295 293 292 291 290 289 288 287 286 285 284 283 282 281 280 280 279 278 277 276 275 274 274 273 272 272 271 271 271 271 271 272 272 272 271 271 270 270 269 268 268 267 267 267 266 266 266 266 266 265 265 265 264 264 264 263 263 262 262 261 261 261 260 259 259 258 258 257 256 255 255 254 252
311 309 308 307 305 304 302 301 300 299 298 297 296 295 294 294 292 291 290 289 288 287 287 286 285 284 284 283 282 281 280 279 278 277 276 275 274 273 272 271 270 270 270 270 270 270 271 271 271 271 271 270 269 269 268 267 267 266 266 266 265 265 265 265 265 264 264 264 263 263 262 262 261 261 260 260 259 258 258 257 256 255 255 254 253
313 311 309 307 305 304 302 301 300 300 299 299 299 298 297 296 295 294 293 292 291 290 289 288 288 287 286 285 284 283 282 282 281 280 279 278 277 275 274 273 272 271 270 269 269 268 268 269 269 270 270 270 270 270 270 269 268 268 267 267 266 266 265 265 265 264 264 264 264 263 263 262 262 261 260 260 259 258 258 257 256 256 255 254 253
314 312 310 309 308 306 304 303 302 301 300 299 299 298 298 297 296 296 294 293 292 292 291 290 289 288 287 287 286 285 284 284 283 282 281 280 279 278 277 276 275 274 273 271 270 269 268 268 267 267 268 268 269 269 270 270 270 270 269 269 268 267 266 266 265 265 264 264 264 263 263 263 262 261 261 260 259 259 258 257 256 256 255 254 253
315 314 313 312 311 309 307 305 304 303 302 300 300 299 298 297 296 296 295 294 293 292 292 291 290 289 288 287 287 286 285 285 284 283 282 282 281 280 279 278 277 276 275 274 273 272 270 269 268 267 267 267 267 267 267 268 269 269 269 269 269 269 268 268 267 266 265 265 264 263 263 262 262 262 261 260 260 259 258 258 257 256 255 254 254
322 320 318 316 314 312 311 309 307 305 304 303 302 301 299 298 297 296 295 294 293 292 292 291 290 289 288 288 287 286 286 285 284 283 282 282 281 280 280 279 278 277 276 276 275 274 273 272 270 269 268 267 267 267 266 267 267 267 268 268 268 269 269 268 268 268 267 266 265 264 263 262 262 261 261 261 260 260 259 258 257 256 256 255 254
327 325 323 321 319 317 315 313 311 309 307 306 304 303 302 300 299 298 296 295 294 293 292 291 290 289 289 288 287 287 286 285 284 283 283 282 281 280 280 279 278 277 277 276 275 275 274 273 272 271 270 269 268 268 267 267 267 267 267 267 267 267 267 268 268 268 267 267 266 265 265 264 263 262 261 260 260 260 259 258 258 257 256 255 254
330 328 326 324 322 320 318 316 314 312 310 309 307 306 304 303 301 300 298 297 296 295 294 293 291 290 289 289 288 287 286 285 285 284 283 282 282 281 280 279 278 278 277 276 275 275 274 274 273 272 272 271 270 269 268 268 268 267 267 267 266 266 266 266 266 266 266 266 266 266 265 264 264 263 262 261 260 259 258 258 257 257 256 255 254
332 330 329 327 325 323 321 319 317 315 313 311 310 308 306 305 303 301 300 299 298 297 296 294 293 292 291 290 289 288 287 286 286 285 284 283 282 281 281 280 278 278 276 276 275 274 274 273 273 273 272 272 271 270 270 269 269 268 268 267 267 267 266 266 266 266 266 266 265 265 265 264 264 263 262 261 260 259 258 257 256 256 255 254 254
334 332 331 329 327 325 324 322 320 318 315 314 313 311 309 307 305 303 301 300 299 298 297 296 295 294 294 292 291 290 289 288 288 287 286 285 284 282 281 280 279 278 277 276 275 274 274 273 273 272 272 272 271 271 270 270 269 269 268 268 268 267 266 266 266 265 265 265 265 265 264 264 263 262 261 260 260 259 258 257 256 255 255 254 253
334 333 331 330 328 327 325 324 322 320 317 316 315 314 312 310 308 306 304 303 301 300 299 298 297 296 295 293 292 292 291 290 289 288 287 286 285 283 282 281 280 279 278 277 276 275 274 274 273 273 272 272 271 271 271 270 270 269 268 268 267 267 267 266 266 265 265 264 264 264 264 263 263 262 261 260 260 259 258 257 256 255 255 254 253
335 334 332 331 329 327 326 324 323 321 319 317 317 316 314 313 311 309 307 306 304 303 302 301 300 298 296 295 294 294 293 292 291 290 289 287 286 284 283 282 281 280 279 278 277 276 275 274 274 273 273 272 272 271 271 271 270 270 269 268 267 266 266 266 266 265 264 264 263 263 263 262 262 262 261 261 260 259 258 257 256 255 255 254 254
335 334 333 331 329 328 326 325 323 322 320 319 319 318 317 315 313 311 309 308 307 306 305 303 302 299 298 297 297 296 295 293 292 291 289 288 287 286 285 284 283 282 281 280 279 278 277 276 275 274 273 273 272 272 272 271 271 270 270 269 268 267 266 266 265 265 264 264 263 262 262 261 261 261 260 260 260 259 259 258 257 256 255 255 254
335 334 333 332 330 328 326 325 323 322 321 320 319 319 318 316 314 312 310 309 309 308 306 305 302 300 300 300 299 297 296 295 293 291 289 289 288 287 286 285 284 283 282 281 280 279 278 277 276 275 274 273 272 272 272 271 271 270 270 269 268 267 266 265 264 264 263 263 262 262 262 261 261 261 261 260 260 259 259 259 258 258 257 257 256
335 334 333 332 330 328 326 325 324 323 322 321 320 319 318 316 314 312 311 310 310 308 307 305 303 302 302 301 300 299 297 295 293 292 291 290 290 289 287 286 286 285 284 283 282 281 279 278 277 276 275 274 273 272 272 271 270 270 269 268 267 266 265 264 263 262 262 262 262 262 262 262 262 262 262 261 260 259 259 260 260 260 259 259 258
334 333 332 332 330 329 327 326 325 324 323 322 321 320 318 317 315 313 312 311 310 309 307 305 304 304 304 303 301 300 297 295 294 293 293 292 291 290 288 288 287 286 285 284 283 282 281 280 279 277 276 275 274 273 272 271 270 269 268 267 266 265 264 262 262 261 261 261 261 261 261 261 261 261 262 262 261 261 261 261 261 260 259 259 258
335 334 333 333 331 330 328 327 326 325 324 323 322 320 319 317 315 314 313 313 311 310 308 306 306 306 305 304 302 300 297 296 295 295 294 293 292 291 290 289 288 287 286 285 284 283 282 281 280 279 278 277 276 275 273 272 271 270 268 267 266 265 263 262 261 261 260 260 260 260 260 260 260 260 261 262 263 263 262 261 261 260 259 258 257
335 334 333 333 332 330 329 328 327 326 325 324 323 321 320 318 317 315 315 313 312 310 309 308 308 307 306 305 302 300 298 297 297 296 295 294 293 292 291 290 288 287 286 286 285 284 283 282 281 280 279 278 277 277 276 274 273 271 270 268 267 266 264 263 262 262 262 261 261 261 261 260 260 260 261 261 262 262 261 260 260 260 259 258 257
335 334 333 333 332 331 330 329 328 327 325 324 323 321 320 319 318 317 315 314 312 311 310 310 310 309 307 305 302 301 300 299 298 297 296 295 294 293 292 290 289 288 287 287 286 285 284 283 282 281 280 279 279 278 277 276 275 274 272 269 268 267 266 265 264 264 263 263 262 262 262 261 260 260 260 261 261 261 260 260 259 259 258 257 256
336 335 334 333 333 331 330 329 328 327 326 325 323 322 321 320 319 318 316 314 313 312 312 312 311 309 307 305 304 302 301 300 299 298 297 296 295 294 293 291 290 289 288 287 287 286 285 284 283 282 281 281 280 279 279 279 277 276 273 271 269 268 267 267 266 266 265 264 264 263 262 262 261 261 261 261 261 260 259 259 258 257 256 255 255
336 335 334 333 333 332 331 330 329 328 327 326 324 323 322 321 320 318 316 315 314 314 314 313 311 309 308 306 305 304 303 302 301 299 298 297 296 295 293 292 291 290 289 288 287 286 285 284 283 283 282 282 281 281 281 281 279 276 274 272 270 269 269 269 268 267 266 265 264 264 263 263 263 262 261 260 260 259 259 258 257 256 255 255 255
336 335 334 334 333 332 331 331 330 328 327 327 325 324 323 322 320 318 317 316 316 315 314 313 311 310 309 307 306 305 304 303 302 301 300 298 297 296 295 293 293 291 290 289 287 286 285 285 285 284 284 283 283 283 282 282 280 277 275 273 272 271 271 270 269 268 267 266 265 265 264 264 263 261 260 259 259 259 259 258 256 255 255 254 254
337 336 335 334 333 333 332 331 330 329 328 328 327 325 324 322 321 319 318 318 317 316 315 313 312 311 310 309 307 306 305 304 303 302 301 299 298 297 296 295 294 293 292 290 288 287 287 286 286 285 285 284 284 283 283 282 280 278 276 275 273 273 272 271 270 269 268 267 266 266 265 264 262 261 260 259 259 259 258 257 256 255 254 253 253
337 336 336 335 334 334 333 332 331 331 330 329 328 327 325 323 322 320 320 319 319 317 316 315 314 313 311 310 309 308 307 306 304 303 301 300 299 299 298 297 296 295 294 292 290 289 288 287 286 286 285 284 284 283 282 281 279 278 277 276 275 274 273 272 271 270 269 268 268 267 265 263 263 262 261 259 258 257 257 257 256 254 253 253 252
337 337 336 336 335 335 334 333 333 332 332 331 330 329 327 325 323 322 322 321 320 318 317 316 315 314 312 311 310 309 308 307 306 304 302 301 301 300 300 299 298 296 295 293 291 290 289 288 287 286 285 285 285 284 283 281 280 279 278 278 277 276 275 273 271 271 270 269 269 267 265 264 263 262 261 259 258 257 256 255 255 254 253 252 252
338 338 337 337 337 336 335 334 334 333 333 332 331 330 328 327 325 325 324 322 321 320 318 317 316 315 314 313 311 310 310 309 307 306 304 303 303 302 301 300 299 297 295 294 292 291 290 289 288 287 286 287 287 286 285 283 281 280 279 279 278 277 276 274 272 271 270 270 268 267 265 264 264 262 261 260 258 257 255 254 254 254 253 252 251
339 339 338 338 338 337 336 335 334 334 333 333 332 331 330 329 328 327 326 324 323 322 320 319 318 317 315 314 313 312 312 310 309 307 306 305 305 304 302 301 299 298 296 294 293 292 291 290 289 288 288 288 288 288 287 285 282 281 279 279 278 277 276 274 273 272 271 269 268 267 266 265 264 262 261 260 258 257 255 254 254 253 253 252 251
339 339 339 338 338 337 336 335 335 334 334 334 333 332 331 331 330 329 328 327 325 324 323 322 321 319 317 316 316 315 313 312 310 309 308 307 306 305 303 302 301 299 298 296 294 293 292 290 289 289 289 289 289 288 288 286 284 282 280 279 278 277 276 274 273 272 272 270 268 266 266 265 264 262 261 260 258 257 255 254 253 253 252 252 251
340 340 340 339 338 337 337 336 336 336 336 335 334 333 333 332 332 331 330 329 328 326 325 324 323 321 320 319 318 317 315 314 313 312 310 309 308 307 306 304 303 301 299 297 296 294 293 292 290 290 290 290 290 289 288 287 285 283 281 279 278 277 275 273 273 273 272 271 268 266 265 264 264 263 261 260 259 257 255 254 253 252 251 251 250
341 341 340 339 339 338 338 338 338 337 337 336 336 335 334 334 334 333 332 331 329 328 327 326 324 323 322 321 320 318 317 316 315 314 312 311 310 309 308 306 305 303 300 298 296 295 293 292 291 291 291 290 291 291 290 288 286 284 282 281 280 278 275 273 273 273 273 271 268 266 265 264 263 263 262 260 259 257 255 254 253 251 250 250 249
342 341 341 340 340 339 339 339 339 339 338 338 337 337 336 336 335 334 333 332 331 330 329 328 326 325 324 323 321 320 319 318 317 316 314 313 312 311 310 308 306 304 302 299 297 295 294 293 292 291 291 291 291 290 290 289 287 285 283 282 280 278 276 274 274 274 273 272 269 266 265 263 262 262 261 260 259 257 255 254 253 252 250 249 249